Weather History for OTBD - April, 2014

Change the Weather History Date:

Wednesday, April 23, 2014

  Actual Average Record
Temperature  
Mean Temperature 83 °F -  
Max Temperature 90 °F 98 °F 104 °F (2015)
Min Temperature 76 °F 75 °F 68 °F (1997)
Cooling Degree Days 18    
Growing Degree Days 33 (Base 50)    
Moisture  
Dew Point 69 °F    
Average Humidity 60    
Maximum Humidity 79    
Minimum Humidity 32    
Precipitation  
Precipitation 0.00 in 0.01 in - ()
Sea Level Pressure  
Sea Level Pressure 29.90 in    
Wind  
Wind Speed 7 mph ()    
Max Wind Speed 15 mph    
Max Gust Speed -    
Visibility 6.3 miles    
Events      
Averages and records for this station are not official NWS values.
T = Trace of Precipitation, MM = Missing Value Source: Averaged Metar Reports

Daily Weather History Graph

Daily Weather History Graph

Search for Another Location

Airport or City:

Trip Planner

Search our weather history database for the weather conditions in past years. The results will help you decide how hot, cold, wet, or windy it might be!

Date:

Astronomy

Apr. 23, 2014 Rise Set
Actual Time 5:04 AM AST 6:00 PM AST
Civil Twilight 4:40 AM AST 6:23 PM AST
Nautical Twilight 4:12 AM AST 6:51 PM AST
Astronomical Twilight 3:44 AM AST 7:20 PM AST
Moon 12:40 AM AST (4/23) 12:19 PM AST (4/23)
Length of Visible Light 13h 43m
Length of Day
12h 55m
Last Quarter, 38% of the Moon is Illuminated
Apr 23
Last Quarter
Apr 29
New
May 7
First Quarter
May 14
Full
May 21
Last Quarter

Hourly Weather History & Observations

Time (AST) Temp. Heat Index Dew Point Humidity Pressure Visibility Wind Dir Wind Speed Gust Speed Precip Events Conditions
12:00 AM 80 °F - 72 °F 71% 29.92 in 6 mi NE 8.1 mph - -   Clear
12:00 AM 78.8 °F - 71.6 °F 78% 29.92 in - NE 8.1 mph - N/A   Clear
1:00 AM 78.8 °F - 71.6 °F 78% 29.89 in - NNE 5.8 mph - N/A   Clear
2:00 AM 80.6 °F 85.4 °F 73.4 °F 79% 29.89 in - NNE 3.5 mph - N/A   Clear
3:00 AM 79 °F - 71 °F 72% 29.89 in 7 mi ENE 2.3 mph - -   Clear
3:00 AM 78.8 °F - 71.6 °F 78% 29.89 in - ENE 2.3 mph - N/A   Clear
3:30 AM 78.8 °F - 71.6 °F 78% 29.89 in - East 3.5 mph - N/A   Clear
4:00 AM 78.8 °F - 71.6 °F 78% 29.89 in - SE 4.6 mph - N/A   Clear
4:30 AM 77.0 °F - 69.8 °F 78% 29.89 in - SE 5.8 mph - N/A   Clear
5:00 AM 77.0 °F - 69.8 °F 78% 29.89 in - SE 3.5 mph - N/A   Clear
6:00 AM 79 °F - 71 °F 69% 29.94 in 7 mi SE 4.6 mph - -   Clear
6:00 AM 78.8 °F - 69.8 °F 74% 29.92 in - SE 4.6 mph - N/A   Clear
6:30 AM 80.6 °F 83.9 °F 69.8 °F 70% 29.92 in 5.6 mi SE 4.6 mph - N/A   Unknown
7:00 AM 82.4 °F 86.3 °F 69.8 °F 66% 29.92 in 5.6 mi SE 6.9 mph - N/A   Unknown
7:30 AM 82.4 °F 86.3 °F 69.8 °F 66% 29.95 in - SE 6.9 mph - N/A   Clear
8:00 AM 84.2 °F 88.4 °F 69.8 °F 62% 29.95 in - SE 6.9 mph - N/A   Clear
8:30 AM 87.8 °F 87.6 °F 60.8 °F 40% 29.95 in - ESE 8.1 mph - N/A   Clear
9:00 AM 88 °F - 68 °F 43% 29.96 in 6 mi ESE 8.1 mph - -   Clear
9:30 AM 87.8 °F 92.6 °F 69.8 °F 55% 29.95 in - ESE 10.4 mph - N/A   Clear
10:00 AM 87.8 °F 87.1 °F 59.0 °F 38% 29.95 in - East 11.5 mph - N/A   Clear
10:30 AM 89.6 °F 91.1 °F 64.4 °F 43% 29.95 in - ESE 10.4 mph - N/A   Clear
11:00 AM 89.6 °F 92.2 °F 66.2 °F 46% 29.95 in - ESE 10.4 mph - N/A   Clear
11:30 AM 89.6 °F 91.1 °F 64.4 °F 43% 29.92 in - East 12.7 mph - N/A   Clear
12:00 PM 90 °F - 64 °F 32% 29.94 in 7 mi ESE 15.0 mph - -   Clear
12:00 PM 91.4 °F 93.2 °F 64.4 °F 41% 29.92 in - ESE 13.8 mph - N/A   Clear
1:00 PM 89.6 °F 90.1 °F 62.6 °F 40% 29.92 in - East 11.5 mph - N/A   Clear
1:30 PM 89.6 °F 93.4 °F 68.0 °F 49% 29.89 in - ESE 12.7 mph - N/A   Clear
2:00 PM 89.6 °F 92.2 °F 66.2 °F 46% 29.89 in - East 11.5 mph - N/A   Clear
2:30 PM 87.8 °F 92.6 °F 69.8 °F 55% 29.89 in - ESE 12.7 mph - N/A   Clear
3:00 PM 89 °F - 71 °F 46% 29.89 in 7 mi East 11.5 mph - -   Clear
3:00 PM 89.6 °F 96.2 °F 71.6 °F 55% 29.89 in - East 11.5 mph - N/A   Clear
4:00 PM 86.0 °F 93.4 °F 73.4 °F 66% 29.86 in - East 8.1 mph - N/A   Clear
4:30 PM 86.0 °F 93.4 °F 73.4 °F 66% 29.86 in - East 6.9 mph - N/A   Clear
5:00 PM 84.2 °F 90.9 °F 73.4 °F 70% 29.86 in - ESE 6.9 mph - N/A   Clear
6:00 PM 85 °F - 72 °F 56% 29.86 in 6 mi SE 6.9 mph - -   Clear
6:00 PM 86.0 °F 91.8 °F 71.6 °F 62% 29.86 in - SE 6.9 mph - N/A   Clear
7:00 PM 84.2 °F 90.9 °F 73.4 °F 70% 29.86 in - SE 8.1 mph - N/A   Clear
8:00 PM 84.2 °F 89.6 °F 71.6 °F 66% 29.86 in - SE 4.6 mph - N/A   Clear
9:00 PM 85 °F - 68 °F 47% 29.86 in 6 mi SSE 6.9 mph - -   Clear
9:00 PM 86.0 °F 89.4 °F 68.0 °F 55% 29.86 in - SSE 6.9 mph - N/A   Clear
10:00 PM 86.0 °F 89.4 °F 68.0 °F 55% 29.83 in - SSE 6.9 mph - N/A   Clear
10:30 PM 84.2 °F 88.4 °F 69.8 °F 62% 29.83 in - SSE 5.8 mph - N/A   Clear
11:00 PM 84.2 °F 87.3 °F 68.0 °F 58% 29.80 in - SSE 6.9 mph - N/A   Clear